Overview Statistics Trail Chart Weather Telemetry Raw packets
 

This is the latest recevied weather packets stored in our database for station/object KO6HRZ. If no packets are shown the sender has not sent any weather packets the latest 10 day(s).

<< 30 31 32 33 34 35 36 >>
Time Temp. Humidity Pressure Rain* Wind** Luminosity Snow
1788217926 26.11° C 50% 1009.8 hPa 0 mm - 427 W/m² -
1788217322 25.56° C 51% 1009.8 hPa 0 mm - 507 W/m² -
1788216721 26.11° C 50% 1009.8 hPa 0 mm - 517 W/m² -
1788216118 26.11° C 50% 1010.1 hPa 0 mm - 556 W/m² -
1788215516 26.11° C 50% 1009.9 hPa 0 mm - 550 W/m² -
1788214913 25.56° C 52% 1010 hPa 0 mm - 563 W/m² -
1788214309 25.56° C 51% 1010 hPa 0 mm - 601 W/m² -
1788213705 26.11° C 52% 1010.4 hPa 0 mm - 589 W/m² -
1788213102 26.11° C 51% 1010.6 hPa 0 mm - 618 W/m² -
1788212501 26.67° C 51% 1010.3 hPa 0 mm - 647 W/m² -
1788211898 26.11° C 51% 1010.7 hPa 0 mm - 673 W/m² -
1788211298 26.67° C 50% 1010.6 hPa 0 mm - 660 W/m² -
1788210695 26.11° C 51% 1010.6 hPa 0 mm - 689 W/m² -
1788210092 26.67° C 49% 1010.5 hPa 0 mm - 660 W/m² -
1788209488 25.56° C 49% 1010.7 hPa 0 mm - 592 W/m² -
1788208886 25° C 51% 1010.6 hPa 0 mm - 628 W/m² -
1788208286 26.11° C 48% 1010.7 hPa 0 mm - 644 W/m² -
1788207685 25° C 52% 1010.9 hPa 0 mm - 613 W/m² -
1788207085 25° C 52% 1010.9 hPa 0 mm - 643 W/m² -
1788206481 25° C 51% 1011 hPa 0 mm - 542 W/m² -
1788205878 24.44° C 54% 1011 hPa 0 mm - 605 W/m² -
1788205274 24.44° C 53% 1011.3 hPa 0 mm - 672 W/m² -
1788204669 23.89° C 56% 1011.3 hPa 0 mm - 641 W/m² -
1788204066 23.33° C 56% 1011.5 hPa 0 mm - 644 W/m² -
1788203463 23.33° C 57% 1011.4 hPa 0 mm - 605 W/m² -

* Rain latest hour (hover to see other rain measurements)
** Current wind speed in m/s (hover to see current wind gust speed)